Change the Weather History Date:

Tuesday, January 15, 2013

  Actual Average Record
Temperature  
Mean Temperature 26 °F -  
Max Temperature 30 °F 40 °F 70 °F (1949)
Min Temperature 23 °F 23 °F -5 °F (1979)
Degree Days  
Heating Degree Days 38    
Moisture  
Dew Point 16 °F    
Average Humidity 61    
Maximum Humidity 64    
Minimum Humidity 55    
Precipitation  
Precipitation 0.00 in - - ()
Sea Level Pressure  
Sea Level Pressure 30.25 in    
Wind  
Wind Speed 9 mph (NNE)    
Max Wind Speed 15 mph    
Max Gust Speed 21 mph    
Visibility 10 miles    
Events      
Averages and records for this station are not official NWS values.
T = Trace of Precipitation, MM = Missing Value Source: NWS Daily Summary

Daily Weather History Graph

Daily Weather History Graph

Search for Another Location

Airport or City:

Trip Planner

Search our weather history database for the weather conditions in past years. The results will help you decide how hot, cold, wet, or windy it might be!

Date:

Astronomy

Jan. 15, 2013 Rise Set
Actual Time 7:04 AM CST 4:55 PM CST
Civil Twilight 6:36 AM CST 5:24 PM CST
Nautical Twilight 6:03 AM CST 5:56 PM CST
Astronomical Twilight 5:32 AM CST 6:28 PM CST
Moon 9:15 AM CST (1/15) 9:39 PM CST (1/15)
Length of Visible Light 10h 48m
Length of Day
9h 51m
Waxing Crescent, 19% of the Moon is Illuminated
Jan 15
Waxing Crescent
Jan 18
First Quarter
Jan 26
Full
Feb 3
Last Quarter
Feb 10
New

Hourly Weather History & Observations

Time (CST) Temp. Windchill Dew Point Humidity Pressure Visibility Wind Dir Wind Speed Gust Speed Precip Events Conditions
12:15 AM 24.8 °F 16.1 °F 12.2 °F 59% 30.36 in 10.0 mi NNE 8.1 mph - N/A   Clear
12:35 AM 24.8 °F 15.3 °F 12.2 °F 59% 30.36 in 10.0 mi North 9.2 mph - N/A   Clear
12:55 AM 24.8 °F 14.6 °F 12.2 °F 59% 30.36 in 10.0 mi North 10.4 mph - N/A   Clear
1:15 AM 24.8 °F 15.3 °F 12.2 °F 59% 30.35 in 10.0 mi NNE 9.2 mph - N/A   Clear
1:35 AM 24.8 °F 16.1 °F 12.2 °F 59% 30.35 in 10.0 mi North 8.1 mph - N/A   Clear
2:15 AM 23.0 °F 13.1 °F 12.2 °F 63% 30.36 in 10.0 mi NNE 9.2 mph - N/A   Clear
2:35 AM 23.0 °F 13.1 °F 12.2 °F 63% 30.35 in 10.0 mi NNE 9.2 mph - N/A   Clear
2:55 AM 23.0 °F 13.9 °F 12.2 °F 63% 30.35 in 10.0 mi NNE 8.1 mph - N/A   Clear
3:15 AM 23.0 °F 13.9 °F 12.2 °F 63% 30.34 in 10.0 mi NNE 8.1 mph - N/A   Clear
3:35 AM 23.0 °F 13.1 °F 12.2 °F 63% 30.34 in 10.0 mi North 9.2 mph - N/A   Clear
3:55 AM 23.0 °F 14.7 °F 12.2 °F 63% 30.34 in 10.0 mi NNE 6.9 mph - N/A   Clear
4:55 AM 23.0 °F 11.7 °F 12.2 °F 63% 30.32 in 10.0 mi NNE 11.5 mph - N/A   Clear
5:15 AM 23.0 °F 13.1 °F 12.2 °F 63% 30.33 in 10.0 mi NNE 9.2 mph - N/A   Clear
5:35 AM 23.0 °F 11.1 °F 12.2 °F 63% 30.32 in 10.0 mi NE 12.7 mph - N/A   Clear
5:55 AM 23.0 °F 12.4 °F 12.2 °F 63% 30.32 in 10.0 mi NE 10.4 mph - N/A   Clear
6:15 AM 23.0 °F 12.4 °F 12.2 °F 63% 30.33 in 10.0 mi NE 10.4 mph - N/A   Clear
6:35 AM 23.0 °F 12.4 °F 12.2 °F 63% 30.33 in 10.0 mi NE 10.4 mph - N/A   Clear
6:55 AM 23.0 °F 11.7 °F 12.2 °F 63% 30.33 in 10.0 mi NE 11.5 mph 16.1 mph N/A   Clear
7:15 AM 23.0 °F 12.4 °F 12.2 °F 63% 30.32 in 10.0 mi NE 10.4 mph - N/A   Clear
7:35 AM 23.0 °F 11.7 °F 12.2 °F 63% 30.33 in 10.0 mi NE 11.5 mph - N/A   Clear
7:55 AM 23.0 °F 12.4 °F 12.2 °F 63% 30.34 in 10.0 mi NE 10.4 mph - N/A   Clear
8:15 AM 24.8 °F 15.3 °F 12.2 °F 59% 30.34 in 10.0 mi NNE 9.2 mph - N/A   Clear
8:35 AM 24.8 °F 14.6 °F 12.2 °F 59% 30.34 in 10.0 mi NE 10.4 mph - N/A   Clear
8:55 AM 24.8 °F 13.4 °F 12.2 °F 59% 30.33 in 10.0 mi NE 12.7 mph - N/A   Clear
9:15 AM 24.8 °F 12.9 °F 14.0 °F 64% 30.33 in 10.0 mi NE 13.8 mph - N/A   Clear
9:35 AM 26.6 °F 16.2 °F 14.0 °F 59% 30.32 in 10.0 mi NE 11.5 mph - N/A   Clear
9:55 AM 26.6 °F 15.2 °F 15.8 °F 64% 30.30 in 10.0 mi NE 13.8 mph - N/A   Clear
10:15 AM 28.4 °F 18.5 °F 15.8 °F 59% 30.29 in 10.0 mi ENE 11.5 mph - N/A   Clear
10:35 AM 28.4 °F 18.5 °F 17.6 °F 64% 30.29 in 10.0 mi ENE 11.5 mph - N/A   Clear
10:55 AM 30.2 °F 20.8 °F 17.6 °F 60% 30.27 in 10.0 mi ENE 11.5 mph - N/A   Clear
11:15 AM 30.2 °F 21.3 °F 17.6 °F 60% 30.26 in 10.0 mi ENE 10.4 mph - N/A   Clear
11:55 AM 30.2 °F 21.9 °F 15.8 °F 55% 30.24 in 10.0 mi NE 9.2 mph - N/A   Clear
12:15 PM 30.2 °F 19.3 °F 15.8 °F 55% 30.14 in 10.0 mi NE 15.0 mph 20.7 mph N/A   Partly Cloudy
12:35 PM 30.2 °F - 17.6 °F 60% 30.24 in 10.0 mi Calm Calm - N/A   Mostly Cloudy
12:55 PM 30.2 °F 24.3 °F 15.8 °F 55% 30.25 in 10.0 mi NNE 5.8 mph - N/A   Mostly Cloudy
1:35 PM 30.2 °F 21.3 °F 15.8 °F 55% 30.24 in 10.0 mi NNW 10.4 mph - N/A   Scattered Clouds
1:55 PM 30.2 °F 23.4 °F 17.6 °F 60% 30.23 in 10.0 mi NNW 6.9 mph - N/A   Overcast
2:15 PM 30.2 °F 20.8 °F 15.8 °F 55% 30.20 in 10.0 mi NNE 11.5 mph - N/A   Overcast
2:35 PM 30.2 °F 21.3 °F 17.6 °F 60% 30.20 in 10.0 mi NNE 10.4 mph - N/A   Mostly Cloudy
2:55 PM 30.2 °F 20.8 °F 17.6 °F 60% 30.19 in 10.0 mi NNE 11.5 mph - N/A   Overcast
3:15 PM 30.2 °F 23.4 °F 17.6 °F 60% 30.23 in 10.0 mi North 6.9 mph - N/A   Overcast
3:35 PM 30.2 °F 23.4 °F 17.6 °F 60% 30.21 in 10.0 mi North 6.9 mph - N/A   Overcast
3:55 PM 30.2 °F 21.9 °F 17.6 °F 60% 30.22 in 10.0 mi North 9.2 mph - N/A   Overcast
4:15 PM 30.2 °F 21.9 °F 17.6 °F 60% 30.20 in 10.0 mi NNE 9.2 mph - N/A   Overcast
4:35 PM 30.2 °F 21.9 °F 17.6 °F 60% 30.19 in 10.0 mi NNE 9.2 mph - N/A   Overcast
4:55 PM 30.2 °F 21.3 °F 17.6 °F 60% 30.17 in 10.0 mi NE 10.4 mph - N/A   Overcast
5:36 PM 30.2 °F 24.3 °F 17.6 °F 60% 30.17 in 10.0 mi NNE 5.8 mph - N/A   Overcast
5:55 PM 30.2 °F 23.4 °F 17.6 °F 60% 30.16 in 10.0 mi NNE 6.9 mph - N/A   Overcast
6:15 PM 30.2 °F 22.6 °F 17.6 °F 60% 30.17 in 10.0 mi NNE 8.1 mph - N/A   Overcast
6:35 PM 30.2 °F 21.3 °F 19.4 °F 64% 30.16 in 7.0 mi NNE 10.4 mph - N/A   Overcast
6:55 PM 30.2 °F 22.6 °F 19.4 °F 64% 30.16 in 10.0 mi NNE 8.1 mph - N/A   Overcast
7:15 PM 30.2 °F 24.3 °F 19.4 °F 64% 30.16 in 10.0 mi NNE 5.8 mph - N/A   Overcast
7:35 PM 30.2 °F 23.4 °F 17.6 °F 60% 30.15 in 10.0 mi NNE 6.9 mph - N/A   Overcast
7:55 PM 30.2 °F 23.4 °F 19.4 °F 64% 30.14 in 10.0 mi NNE 6.9 mph - N/A   Overcast
8:15 PM 30.2 °F 24.3 °F 17.6 °F 60% 30.14 in 10.0 mi NNE 5.8 mph - N/A   Overcast
8:35 PM 30.2 °F 25.4 °F 19.4 °F 64% 30.14 in 10.0 mi North 4.6 mph - N/A   Overcast
8:55 PM 30.2 °F 26.7 °F 19.4 °F 64% 30.14 in 10.0 mi North 3.5 mph - N/A   Overcast
9:15 PM 30.2 °F 25.4 °F 19.4 °F 64% 30.13 in 10.0 mi NNW 4.6 mph - N/A   Overcast
9:35 PM 30.2 °F 25.4 °F 19.4 °F 64% 30.12 in 10.0 mi North 4.6 mph - N/A   Overcast
9:55 PM 30.2 °F 25.4 °F 19.4 °F 64% 30.12 in 10.0 mi North 4.6 mph - N/A   Overcast
10:15 PM 30.2 °F 25.4 °F 19.4 °F 64% 30.12 in 10.0 mi North 4.6 mph - N/A   Overcast
10:35 PM 30.2 °F 24.3 °F 19.4 °F 64% 30.11 in 10.0 mi NNW 5.8 mph - N/A   Overcast
10:55 PM 30.2 °F 23.4 °F 19.4 °F 64% 30.12 in 10.0 mi NNW 6.9 mph - N/A   Overcast
11:15 PM 30.2 °F 22.6 °F 19.4 °F 64% 30.12 in 10.0 mi NNW 8.1 mph - N/A   Overcast
11:35 PM 30.2 °F 23.4 °F 19.4 °F 64% 30.10 in 10.0 mi NNW 6.9 mph - N/A   Overcast